Location: Berkeley
(37.8716°N, 122.2727°W)
Time: 00:51:58
(UTC-07:00)

ARIANE 6 FM1 Upper Stage - Pass Details

Date: 11 May 2026
Orbit: 528 x 599 km, 62.0° (Epoch: 10 June)

Event Time Altitude Azimuth Distance (km) Brightness Sun altitude
Rises 20:47:28 0° 311° (NW) 2,666 8.2 -7.6°
Reaches altitude 10° 20:50:00 10° 296° (WNW) 1,773 6.9 -8.0°
Maximum altitude 20:53:06 22° 244° (WSW) 1,187 4.8 -8.5°
Drops below altitude 10° 20:56:12 10° 193° (SSW) 1,773 5.0 -9.1°
Sets 20:58:44 0° 178° (S) 2,667 5.8 -9.5°
